Change the Weather History Date:

Friday, February 3, 2012

  Actual Average Record
Temperature  
Mean Temperature 76 °F -  
Max Temperature 81 °F 79 °F 88 °F (1984)
Min Temperature 70 °F 66 °F 63 °F (1983)
Cooling Degree Days 10    
Growing Degree Days 26 (Base 50)    
Moisture  
Dew Point 62 °F    
Average Humidity 66    
Maximum Humidity 73    
Minimum Humidity 56    
Precipitation  
Precipitation 0.00 in - - ()
Sea Level Pressure  
Sea Level Pressure 29.96 in    
Wind  
Wind Speed 8 mph (South)    
Max Wind Speed 12 mph    
Max Gust Speed -    
Visibility 10 miles    
Events      
Averages and records for this station are not official NWS values.
T = Trace of Precipitation, MM = Missing Value Source: NWS Daily Summary

Daily Weather History Graph

Daily Weather History Graph

Search for Another Location

Airport or City:

Trip Planner

Search our weather history database for the weather conditions in past years. The results will help you decide how hot, cold, wet, or windy it might be!

Date:

Astronomy

Feb. 03, 2012 Rise Set
Actual Time 6:58 AM HST 6:17 PM HST
Civil Twilight 6:35 AM HST 6:40 PM HST
Nautical Twilight 6:09 AM HST 7:06 PM HST
Astronomical Twilight 5:43 AM HST 7:32 PM HST
Moon 2:44 PM HST (2/3) 3:27 AM HST (2/3)
Length of Visible Light 12h 04m
Length of Day
11h 18m
Waxing Gibbous, 83% of the Moon is Illuminated
Feb 3
Waxing Gibbous
Feb 7
Full
Feb 14
Last Quarter
Feb 21
New
Feb 29
First Quarter

Hourly Weather History & Observations

Time (HST) Temp. Heat Index Dew Point Humidity Pressure Visibility Wind Dir Wind Speed Gust Speed Precip Events Conditions
12:53 AM 73.0 °F - 57.9 °F 59% 30.01 in 10.0 mi SE 10.4 mph - N/A   Clear
1:53 AM 71.1 °F - 57.9 °F 63% 29.99 in 10.0 mi ESE 6.9 mph - N/A   Clear
2:53 AM 71.1 °F - 59.0 °F 66% 29.98 in 10.0 mi ESE 9.2 mph - N/A   Clear
3:53 AM 70.0 °F - 61.0 °F 73% 29.97 in 10.0 mi ESE 8.1 mph - N/A   Clear
4:53 AM 71.1 °F - 61.0 °F 70% 29.97 in 10.0 mi ESE 8.1 mph - N/A   Clear
5:53 AM 70.0 °F - 60.1 °F 71% 29.98 in 10.0 mi ESE 9.2 mph - N/A   Clear
6:53 AM 70.0 °F - 60.1 °F 71% 30.00 in 10.0 mi ESE 8.1 mph - N/A   Clear
7:53 AM 72.0 °F - 60.1 °F 66% 30.01 in 10.0 mi ESE 6.9 mph - N/A   Partly Cloudy
8:53 AM 75.9 °F - 64.0 °F 67% 30.02 in 10.0 mi SSE 4.6 mph - N/A   Mostly Cloudy
9:53 AM 77.0 °F - 64.0 °F 64% 30.02 in 10.0 mi South 6.9 mph - N/A   Clear
10:53 AM 79.0 °F - 64.0 °F 60% 29.99 in 10.0 mi SW 8.1 mph - N/A   Clear
11:53 AM 79.0 °F - 64.9 °F 62% 29.98 in 10.0 mi SSW 11.5 mph - N/A   Clear
12:53 PM 80.1 °F 81.9 °F 64.9 °F 60% 29.95 in 10.0 mi SSW 10.4 mph - N/A   Clear
1:53 PM 81.0 °F 82.5 °F 64.0 °F 56% 29.92 in 10.0 mi WSW 11.5 mph - N/A   Clear
2:53 PM 80.1 °F 81.7 °F 64.0 °F 58% 29.91 in 10.0 mi SW 10.4 mph - N/A   Clear
3:53 PM 79.0 °F - 64.0 °F 60% 29.91 in 10.0 mi WSW 9.2 mph - N/A   Clear
4:53 PM 78.1 °F - 64.0 °F 62% 29.91 in 10.0 mi WSW 8.1 mph - N/A   Clear
5:53 PM 77.0 °F - 63.0 °F 62% 29.92 in 10.0 mi WSW 6.9 mph - N/A   Partly Cloudy
6:53 PM 75.9 °F - 64.0 °F 67% 29.94 in 10.0 mi West 4.6 mph - N/A   Overcast
7:53 PM 75.0 °F - 64.9 °F 71% 29.95 in 10.0 mi West 3.5 mph - N/A   Scattered Clouds
8:16 PM 75.2 °F - 64.4 °F 69% 29.95 in 10.0 mi West 3.5 mph - N/A   Mostly Cloudy
8:30 PM 75.2 °F - 64.4 °F 69% 29.95 in 10.0 mi Calm Calm - N/A   Scattered Clouds
8:53 PM 75.0 °F - 63.0 °F 66% 29.96 in 10.0 mi WNW 3.5 mph - N/A   Partly Cloudy
9:53 PM 72.0 °F - 62.1 °F 71% 29.96 in 10.0 mi Calm Calm - N/A   Clear
10:53 PM 71.1 °F - 60.1 °F 68% 29.95 in 10.0 mi ENE 4.6 mph - N/A   Clear
11:53 PM 70.0 °F - 61.0 °F 73% 29.94 in 10.0 mi ENE 4.6 mph - N/A   Clear